COSMOS 1275 DEB, 42180

Orbit data source: Space-Track

COSMOS 1275 DEB, 42180 is space debris in LEO originally from a launch on Thu, 04 Jun 1981 UTC launched from the Plesetsk Missile And Space Complex (PKMTR). Debris objects in space refer to the collection of defunct objects orbiting the Earth. Examples of debris include non-operational satellites, rocket bodies, and fragments generated from explosions, collisions, or faulty payload assembly.

Loading next visibility...
Identifier
42180, 1981-053SU
Orbit
LEO
Last TLE update
15 hours ago
Origin
Manufacturer
Unknown
Mission
Spacecraft
Bus & Motor
Unknown
Mass
Unknown
Launch date (UTC)
1981-06-04 (44 years ago)
Launch vehicle
Unknown
Launch site
Plesetsk Missile And Space Complex (PKMTR)
Object type
Payload
Rocket body
Debris
Shape & HBR
Unknown
Radar Cross Section
Small (<0.1 m²)

Expand to show TLE details & history

TLE from 15 hours ago
0 COSMOS 1275 DEB
1 42180U 81053SU  25182.53951480  .00011163  00000-0  18863-2 0  9995
2 42180  82.8629 267.4869 0012536 115.4804 305.7559 14.69263989576788
Epoch: 2025-07-01T12:56Z
TLE epoch observation values (Epoch: 2025-07-01T12:56:54.078Z)
Latitude
60.42198°
Longitude
166.1032°
Altitude
668.588 km
Speed
7.531 km/s
True Right ascension
18h 40m 38s
True Declination
60° 16' 20"
Sunlit
Object was in daylight at epoch
Visualization orbit readout
Latitude
-43.14047°
Longitude
-20.4324°
Altitude
683.005 km
Speed
7.512 km/s
Apparent Right ascension
05h 11m 29s
Apparent Declination
-42° 34' 50"
Sunlit
Object is in daylight
Visualization observer readout
Local Sidereal Time
16:05:01
Azimuth
252.543° W
Elevation
-77.248°
Doppler factor
1
Orbital elements
Apogee altitude
669.265 km
Perigee altitude
651.618 km
Semi-major axis
7,038.579 km
Eccentricity
0.00125
Inclination
82.8629°
RAAN
267.4869°
Arg. of periapsis
115.4804°
True anomaly
Unknown
Mean anomaly
305.7559°
Eccentric anomaly
Unknown
Mean motion
3.67549 °/min
Orbital period
97.95 mins
BSTAR
0.0018863
Loading maneuver chart data...
Loading SW <> Apogee altitude chart data...
Loading historical data...
Loading historical data...
Loading historical data...
Loading historical data...
Loading historical data...
Loading historical data...
Loading historical data...

COSMOS 1275 DEB Visibility forecast

Observer location: undefined°, undefined°

Span
Click to sort rows by Start time (UTC) header in descending order
Start Az.
Max El. time (UTC)
Max El. Az.
Max El.
End time (UTC)
End Az.
6 mins2025-07-02 06:47:37.358Z212.146° SW2025-07-02 06:50:37.358Z304.528° NW37.751°2025-07-02 06:53:37.358Z353.575° N
6 mins2025-07-02 17:02:37.358Z21.845° NNE2025-07-02 17:05:37.358Z94.173° ESE31.382°2025-07-02 17:08:37.358Z142.982° SSE
4 mins2025-07-02 18:41:37.358Z303.605° NW2025-07-02 18:43:37.358Z272.827° WNW16.898°2025-07-02 18:45:37.358Z242.743° WSW
|